Location: Las Navas
(40.6024°N, 4.3345°W)
Time: 08:35:46
(UTC+00:00)

Cosmos 1340 Rocket - Pass Details

Date: 03 April 2020
Orbit: 529 x 559 km, 81.2° (Epoch: 29 May)

Event Time Altitude Azimuth Distance (km) Brightness Sun altitude
Exits shadow 21:23:36 37° 325° (NW) 874 4.2 -28.5°
Drops below altitude 10° 21:26:30 10° 357° (N) 1,843 6.0 -28.9°
Sets 21:28:44 0° 4° (N) 2,737 6.8 -29.2°
